LUCH (OLYMP-K 1)

Last updated on Fri Sep 12 2025 00:02:47 GMT+0000 (Coordinated Universal Time)

1 40258U 14058A 25254.66910192 -.00000002 00000+0 00000+0 0 9990 2 40258 1.1668 86.5420 0000857 149.1303 61.6779 1.00273786 38202
UTC large
Height (km)
Speed (km/s)
/
Latitude / Longitude
Inclination (degrees)
Orbital Period (minutes)
Azimuth
Elevation
Range (km)
Doppler Factor

Next 0 passes for location: London (51.5072 / 0.1276)

Sorry there are no passes over London.